Curacao, Curacao

9:57 PM AST on July 20, 2017 (GMT -0400)
Willemstad-Hato International

Weather History for TNCC - May, 2013

Change the Weather History Date:

Tuesday, May 7, 2013

  Actual Average Record
Temperature  
Mean Temperature 82 °F -  
Max Temperature 87 °F 88 °F 92 °F (2016)
Min Temperature 78 °F 77 °F 62 °F (1998)
Cooling Degree Days 18    
Growing Degree Days 32 (Base 50)    
Moisture  
Dew Point 75 °F    
Average Humidity 78    
Maximum Humidity 94    
Minimum Humidity 45    
Precipitation  
Precipitation 0.00 in 0.03 in - ()
Sea Level Pressure  
Sea Level Pressure 29.95 in    
Wind  
Wind Speed 8 mph ()    
Max Wind Speed 15 mph    
Max Gust Speed -    
Visibility 7.6 miles    
Events Rain    
Averages and records for this station are not official NWS values.
T = Trace of Precipitation, MM = Missing Value Source: Averaged Metar Reports

Daily Weather History Graph

Daily Weather History Graph

Search for Another Location

Airport or City:

Trip Planner

Search our weather history database for the weather conditions in past years. The results will help you decide how hot, cold, wet, or windy it might be!

Date:

Astronomy

May. 07, 2013 Rise Set
Actual Time 6:13 AM AST 6:51 PM AST
Civil Twilight 5:51 AM AST 7:13 PM AST
Nautical Twilight 5:25 AM AST 7:39 PM AST
Astronomical Twilight 4:59 AM AST 8:05 PM AST
Moon 4:23 AM AST (5/7) 5:04 PM AST (5/7)
Length of Visible Light 13h 21m
Length of Day
12h 37m
Waning Crescent, 5% of the Moon is Illuminated
May 7
Waning Crescent
May 9
New
May 18
First Quarter
May 25
Full
May 31
Last Quarter

Hourly Weather History & Observations

Time (AST) Temp. Heat Index Dew Point Humidity Pressure Visibility Wind Dir Wind Speed Gust Speed Precip Events Conditions
12:00 AM 80.6 °F 86.2 °F 75.2 °F 84% 29.95 in 6.2 mi ESE 6.9 mph - N/A   Partly Cloudy
1:00 AM 80.6 °F 86.2 °F 75.2 °F 84% 29.92 in 6.2 mi East 8.1 mph - N/A   Scattered Clouds
2:00 AM 80.6 °F 80.8 °F 57.2 °F 45% 29.92 in 6.2 mi East 6.9 mph - N/A   Scattered Clouds
3:00 AM 80.6 °F 86.2 °F 75.2 °F 84% 29.92 in 6.2 mi ESE 4.6 mph - N/A   Scattered Clouds
4:00 AM 80.6 °F 86.2 °F 75.2 °F 84% 29.92 in 6.2 mi East 5.8 mph - N/A   Scattered Clouds
5:00 AM 78.8 °F - 75.2 °F 89% 29.92 in 6.2 mi ESE 2.3 mph - N/A   Scattered Clouds
6:00 AM 78.8 °F - 75.2 °F 89% 29.92 in 6.2 mi SE 3.5 mph - N/A   Scattered Clouds
7:00 AM 78.8 °F - 77.0 °F 94% 29.95 in 6.2 mi SE 5.8 mph - N/A   Partly Cloudy
8:00 AM 79 °F - 76 °F 86% 29.98 in 16 mi SE 5.8 mph - -   Scattered Clouds
8:00 AM 78.8 °F - 75.2 °F 89% 29.98 in 6.2 mi SE 5.8 mph - N/A Rain Light Rain
9:00 AM 80.6 °F 86.2 °F 75.2 °F 84% 29.98 in 6.2 mi East 4.6 mph - N/A   Partly Cloudy
10:00 AM 82.4 °F 90.9 °F 77.0 °F 84% 29.98 in 6.2 mi ESE 8.1 mph - N/A   Partly Cloudy
11:00 AM 84 °F - 75 °F 69% 29.99 in 16 mi ESE 12.7 mph - -   Scattered Clouds
11:00 AM 84.2 °F 92.3 °F 75.2 °F 74% 29.98 in 6.2 mi ESE 12.7 mph - N/A   Partly Cloudy
12:00 PM 84.2 °F 92.3 °F 75.2 °F 74% 29.98 in 6.2 mi SE 13.8 mph - N/A   Scattered Clouds
1:00 PM 84.2 °F 92.3 °F 75.2 °F 74% 29.98 in 6.2 mi East 10.4 mph - N/A   Scattered Clouds
2:00 PM 86 °F - 77 °F 67% 29.94 in 14 mi East 11.5 mph - -   Partly Cloudy
2:00 PM 86.0 °F 96.9 °F 77.0 °F 74% 29.92 in 6.2 mi East 11.5 mph - N/A   Scattered Clouds
3:00 PM 86.0 °F 96.9 °F 77.0 °F 74% 29.92 in 6.2 mi East 12.7 mph - N/A   Scattered Clouds
4:00 PM 86.0 °F 95.1 °F 75.2 °F 70% 29.89 in 6.2 mi East 12.7 mph - N/A   Partly Cloudy
5:00 PM 86 °F - 76 °F 65% 29.91 in 11 mi East 13.8 mph - -   Haze
5:00 PM 86.0 °F 95.1 °F 75.2 °F 70% 29.89 in 6.2 mi East 13.8 mph - N/A   Partly Cloudy
7:00 PM 82.4 °F 89.5 °F 75.2 °F 79% 29.92 in 6.2 mi East 13.8 mph - N/A   Partly Cloudy
8:00 PM 82 °F - 75 °F 75% 29.96 in 11 mi East 15.0 mph - -   Haze
8:00 PM 82.4 °F 89.5 °F 75.2 °F 79% 29.95 in 6.2 mi East 15.0 mph - N/A   Partly Cloudy
9:00 PM 80.6 °F 86.2 °F 75.2 °F 84% 29.95 in 6.2 mi East 13.8 mph - N/A   Partly Cloudy
10:00 PM 82.4 °F 88.2 °F 73.4 °F 74% 29.98 in 6.2 mi East 15.0 mph - N/A   Partly Cloudy
11:00 PM 81 °F - 74 °F 75% 30.02 in 11 mi East 12.7 mph - -   Partly Cloudy
11:00 PM 80.6 °F 86.2 °F 75.2 °F 84% 30.01 in 6.2 mi East 11.5 mph - N/A   Partly Cloudy